Stations météo

réclame
Mon MeteoGroup
Gemini, Pays-Bas (6214): Température de l'air & dewpoint: 07.07.2020 23:00:00 - 13.07.2020 23:00:00 (CEST)Gemini, Pays-Bas (6214): Vitesse du vent & gusts: 07.07.2020 23:00:00 - 13.07.2020 23:00:00 (CEST)Gemini, Pays-Bas (6214): Direction du vent: 07.07.2020 23:00:00 - 13.07.2020 23:00:00 (CEST)Gemini, Pays-Bas (6214): reduced air pressure: 07.07.2020 23:00:00 - 13.07.2020 23:00:00 (CEST)Gemini, Pays-Bas (6214): visibility: 07.07.2020 23:00:00 - 13.07.2020 23:00:00 (CEST)
Date & Time tt [°C] td [°C] ff [km/h] ff [knt] fx [km/h] fx [knt] dd ppp [hPa] vv [km]
13.07.2020 23:00:00 17,4 12,7 18 10 29 16 WSW 1018,2 10
13.07.2020 22:00:00 17,5 12,3 22 12 25 14 SW 1018,5 10
13.07.2020 21:00:00 17,4 11,8 21 11 25 14 SW 1018,6 10
13.07.2020 20:00:00 17,4 12,4 18 10 25 14 SW 1019,3 49
13.07.2020 19:00:00 17,4 12,9 18 10 22 12 WSW 1019,9 48
13.07.2020 18:00:00 17,3 13,0 18 10 22 12 SW 1020,4 10
13.07.2020 17:00:00 17,2 13,1 18 10 22 12 SW 1021,1 10
13.07.2020 16:00:00 17,1 13,2 18 10 22 12 SW 1021,7 10
13.07.2020 15:00:00 17,1 11,1 21 11 25 14 SW 1022,3 10
13.07.2020 14:00:00 16,8 11,6 21 11 29 16 SW 1022,8 10
13.07.2020 13:00:00 16,4 11,4 24 13 25 14 SW 1023,4 10
13.07.2020 12:00:00 15,9 11,8 22 12 25 14 SW 1024,0 10
13.07.2020 11:00:00 15,6 11,8 22 12 25 14 SSW 1024,2 10
13.07.2020 10:00:00 15,9 11,2 18 10 25 14 SW 1024,5 10
13.07.2020 09:00:00 16,3 10,1 16 9 22 12 WSW 1024,6 10
13.07.2020 08:00:00 16,0 11,2 13 7 22 12 WSW 1024,8 10
13.07.2020 07:00:00 15,7 11,4 16 9 22 12 W 1025,0 10
13.07.2020 06:00:00 15,4 10,8 16 9 18 10 W 1025,0 10
13.07.2020 05:00:00 15,2 11,2 11 6 18 10 W 1025,3 50
13.07.2020 04:00:00 15,0 11,2 13 7 18 10 W 1025,7 10
13.07.2020 03:00:00 15,0 10,7 15 8 18 10 W 1026,1 10
13.07.2020 02:00:00 15,1 9,8 18 10 22 12 W 1026,4 10
13.07.2020 01:00:00 15,1 10,1 18 10 22 12 W 1026,7 10
13.07.2020 00:00:00 15,4 11,1 15 8 18 10 W 1027,0 10
12.07.2020 23:00:00 15,6 11,3 13 7 18 10 W 1027,3 10
12.07.2020 22:00:00 15,7 11,5 11 6 18 10 W 1027,5 10
12.07.2020 21:00:00 15,8 11,7 13 7 14 8 W 1027,4 10
12.07.2020 20:00:00 16,0 11,2 15 8 18 10 W 1027,5 10
12.07.2020 19:00:00 16,4 11,5 13 7 18 10 WNW 1027,9 10
12.07.2020 18:00:00 16,4 10,8 13 7 18 10 WNW 1028,1 10
12.07.2020 17:00:00 16,3 11,1 15 8 22 12 WNW 1028,3 10
12.07.2020 16:00:00 16,2 11,2 15 8 22 12 WNW 1028,8 10
12.07.2020 15:00:00 16,1 10,6 16 9 22 12 W 1029,1 10
12.07.2020 14:00:00 16,1 10,2 16 9 18 10 W 1028,9 10
12.07.2020 13:00:00 16,0 9,8 13 7 14 8 WNW 1028,7 10
12.07.2020 12:00:00 15,4 9,6 15 8 18 10 NW 1028,7 10
12.07.2020 11:00:00 15,1 9,6 16 9 22 12 NW 1028,5 10
12.07.2020 10:00:00 14,9 9,1 16 9 22 12 NW 1028,2 10
12.07.2020 09:00:00 14,7 9,4 18 10 22 12 WNW 1028,0 10
12.07.2020 08:00:00 14,6 8,3 18 10 22 12 NW 1027,3 10
12.07.2020 07:00:00 14,4 8,9 16 9 25 14 NW 1026,9 10
12.07.2020 06:00:00 14,3 9,3 18 10 25 14 NW 1026,6 10
12.07.2020 05:00:00 14,4 9,9 15 8 22 12 WNW 1026,4 10
12.07.2020 04:00:00 14,3 9,2 18 10 22 12 NW 1026,4 10
12.07.2020 03:00:00 14,2 9,5 16 9 22 12 NW 1026,5 10
12.07.2020 02:00:00 14,2 9,3 16 9 22 12 NW 1026,6 10
12.07.2020 01:00:00 14,3 9,7 15 8 18 10 NNW 1026,5 10
12.07.2020 00:00:00 14,3 9,4 13 7 18 10 NW 1026,4 10
11.07.2020 23:00:00 14,5 9,7 15 8 22 12 NNW 1026,2 10
11.07.2020 22:00:00 14,5 9,4 15 8 22 12 NNW 1026,0 10
11.07.2020 21:00:00 14,8 9,4 16 9 22 12 NNW 1025,7 10
11.07.2020 20:00:00 15,0 8,8 16 9 22 12 N 1025,3 10
11.07.2020 19:00:00 15,1 10,3 16 9 22 12 NW 1025,0 10
11.07.2020 18:00:00 14,9 10,4 16 9 22 12 NNW 1024,8 10
11.07.2020 17:00:00 15,0 10,1 14 8 25 14 NNW 1024,6 50
11.07.2020 16:00:00 15,4 9,3 22 12 25 14 WNW 1024,6 10
11.07.2020 15:00:00 15,4 9,3 14 8 22 12 WNW 1024,4 49
11.07.2020 14:00:00 15,4 9,4 21 11 22 12 WNW 1024,1 10
11.07.2020 13:00:00 15,3 9,0 16 9 22 12 WNW 1023,6 10
11.07.2020 12:00:00 14,7 8,5 24 13 25 14 WNW 1023,2 10
11.07.2020 11:00:00 15,4 9,3 18 10 25 14 WNW 1022,8 10
11.07.2020 10:00:00 15,0 8,1 21 11 25 14 NW 1022,4 10
11.07.2020 09:00:00 14,4 8,1 21 11 25 14 NW 1021,8 10
11.07.2020 08:00:00 14,4 9,0 18 10 25 14 NW 1021,2 49
11.07.2020 07:00:00 14,0 9,1 13 7 29 16 W 1020,9 10
11.07.2020 06:00:00 14,1 8,7 18 10 32 18 NW 1020,3 50
11.07.2020 05:00:00 14,1 9,4 26 14 29 16 WNW 1019,8 10
11.07.2020 04:00:00 14,0 9,4 26 14 29 16 NW 1019,7 10
11.07.2020 03:00:00 14,0 9,0 22 12 32 18 NW 1019,5 50
11.07.2020 02:00:00 14,1 9,2 26 14 32 18 NW 1019,1 10
11.07.2020 01:00:00 14,0 8,7 26 14 32 18 NW 1018,9 10
11.07.2020 00:00:00 13,9 8,5 24 13 29 16 NNW 1018,6 10
10.07.2020 23:00:00 14,0 8,9 28 15 32 18 NW 1018,1 10
10.07.2020 22:00:00 13,9 9,4 22 12 36 19 NW 1017,7 10
10.07.2020 21:00:00 13,9 9,3 29 16 40 21 NW 1017,2 10
10.07.2020 20:00:00 14,1 8,8 26 14 36 19 NW 1016,8 10
10.07.2020 19:00:00 14,3 7,8 22 12 29 16 NNW 1016,7 10
10.07.2020 18:00:00 14,3 8,9 22 12 29 16 NNW 1016,1 10
10.07.2020 17:00:00 14,2 7,3 26 14 36 19 NNW 1015,5 10
10.07.2020 16:00:00 14,1 7,4 31 17 36 19 NNW 1014,8 10
10.07.2020 15:00:00 14,2 7,6 26 14 29 16 NNW 1014,1 10
10.07.2020 14:00:00 14,2 8,5 26 14 32 18 N 1013,4 10
10.07.2020 13:00:00 14,2 8,3 28 15 29 16 N 1012,6 10
10.07.2020 12:00:00 14,0 8,0 28 15 - - N 1011,9 10
10.07.2020 11:00:00 14,0 8,6 26 14 32 18 N 1011,1 10
10.07.2020 10:00:00 14,1 8,7 24 13 32 18 NNE 1010,4 10
10.07.2020 09:00:00 14,0 9,2 24 13 32 18 NE 1009,8 10
10.07.2020 08:00:00 13,7 8,9 31 17 40 21 NE 1009,2 10
10.07.2020 07:00:00 13,8 9,4 31 17 40 21 ENE 1009,2 10
10.07.2020 06:00:00 13,4 9,2 34 18 36 19 ENE 1009,1 10
10.07.2020 05:00:00 13,6 9,4 34 18 36 19 NE 1009,1 10
10.07.2020 04:00:00 13,5 9,7 34 18 36 19 ENE 1009,6 10
10.07.2020 03:00:00 13,7 9,8 31 17 36 19 ENE 1010,3 10
10.07.2020 02:00:00 13,9 9,9 29 16 36 19 E 1010,3 10
10.07.2020 01:00:00 14,1 9,7 22 12 32 18 E 1010,9 10
10.07.2020 00:00:00 14,2 10,0 24 13 29 16 - 1011,2 10
09.07.2020 23:00:00 14,2 9,8 21 11 29 16 E 1011,5 10
09.07.2020 22:00:00 14,2 10,2 24 13 29 16 ENE 1011,8 10
09.07.2020 21:00:00 13,9 9,6 18 10 22 12 E 1011,7 10
09.07.2020 20:00:00 13,9 9,5 15 8 22 12 - 1012,2 10
09.07.2020 19:00:00 13,9 9,4 15 8 25 14 E 1012,0 10
09.07.2020 18:00:00 14,0 10,3 15 8 22 12 E 1012,4 10
09.07.2020 17:00:00 13,6 11,2 21 11 25 14 E 1012,4 10
09.07.2020 16:00:00 13,7 10,7 16 9 25 14 - 1012,3 10
09.07.2020 15:00:00 13,7 10,0 21 11 29 16 E 1012,3 10
09.07.2020 14:00:00 13,6 8,9 26 14 29 16 E 1012,2 10
09.07.2020 13:00:00 13,1 8,5 15 8 29 16 E 1012,1 10
09.07.2020 12:00:00 12,6 9,5 26 14 32 18 - 1012,0 10
09.07.2020 11:00:00 12,2 9,7 14 8 29 16 E 1012,1 29
09.07.2020 10:00:00 12,1 9,6 21 11 29 16 - 1012,7 10
09.07.2020 09:00:00 12,3 9,1 22 12 25 14 E 1012,7 10
09.07.2020 08:00:00 12,7 8,3 18 10 25 14 E 1012,8 10
09.07.2020 07:00:00 12,9 8,4 18 10 22 12 ESE 1013,2 10
09.07.2020 06:00:00 13,3 8,7 18 10 22 12 E 1013,9 10
09.07.2020 05:00:00 13,6 8,0 16 9 22 12 E 1014,0 10
09.07.2020 04:00:00 13,7 7,9 11 6 18 10 - 1014,6 10
09.07.2020 03:00:00 13,6 8,0 9 5 14 8 - 1014,9 10
09.07.2020 02:00:00 13,6 7,9 8 4 14 8 E 1015,6 10
09.07.2020 01:00:00 13,6 7,8 8 4 11 6 E 1016,0 10
09.07.2020 00:00:00 13,5 7,6 9 5 11 6 E 1016,1 10
08.07.2020 23:00:00 13,5 6,9 8 4 14 8 NE 1016,4 10
08.07.2020 22:00:00 13,5 7,5 9 5 14 8 NE 1016,3 10
08.07.2020 21:00:00 13,7 6,9 9 5 14 8 NNE 1016,1 10
08.07.2020 20:00:00 13,8 7,3 11 6 14 8 NNE 1016,4 10
08.07.2020 19:00:00 14,0 7,1 11 6 14 8 N 1016,4 50
08.07.2020 18:00:00 14,1 7,8 11 6 18 10 N 1016,6 49
08.07.2020 17:00:00 14,1 8,4 11 6 18 10 N 1016,5 50
08.07.2020 16:00:00 14,3 7,7 13 7 14 8 N 1016,4 10
08.07.2020 15:00:00 14,2 7,6 11 6 14 8 N 1016,2 10
08.07.2020 14:00:00 14,4 7,4 11 6 14 8 N 1015,9 10
08.07.2020 13:00:00 14,3 8,0 11 6 14 8 N 1015,7 10
08.07.2020 12:00:00 14,4 8,7 9 5 11 6 NNE 1015,5 10
08.07.2020 11:00:00 14,6 8,9 11 6 14 8 NNE 1015,1 10
08.07.2020 10:00:00 14,9 9,4 15 8 18 10 N 1014,7 10
08.07.2020 09:00:00 14,1 8,8 11 6 14 8 NNW 1014,4 10
08.07.2020 08:00:00 14,5 8,9 13 7 14 8 NNW 1014,2 10
08.07.2020 07:00:00 14,0 9,3 13 7 14 8 NW 1013,9 10
08.07.2020 06:00:00 13,7 9,0 13 7 18 10 NW 1014,1 10
08.07.2020 05:00:00 13,6 8,8 16 9 22 12 NW 1014,3 10
08.07.2020 04:00:00 13,7 9,2 21 11 25 14 NW 1014,6 10
08.07.2020 03:00:00 13,7 8,9 18 10 25 14 WNW 1015,0 49
08.07.2020 02:00:00 13,9 9,4 22 12 25 14 WNW 1015,2 10
08.07.2020 01:00:00 13,9 8,9 24 13 29 16 WNW 1015,3 10
08.07.2020 00:00:00 13,9 9,5 26 14 29 16 WNW 1015,5 10
07.07.2020 23:00:00 13,9 9,7 24 13 29 16 WNW 1015,9 10

tt = Température de l'air
td = dewpoint
ff = Vitesse du vent
fx = gusts
dd = Direction du vent
ppp = reduced air pressure
vv = visibility

stations d'obs. à proximité